Location: Shenandoah County Park
(38.9356°N, 78.4524°W)
Time: 02:37:27
(UTC-05:00)

ISS - Visible Passes

Search period start: 13 February 2026 00:00
Search period end: 23 February 2026 00:00
Orbit: 413 x 429 km, 51.6° (Epoch: 11 February)

Date Brightness Start Highest point End Pass type
(mag) Time Alt. Az. Time Alt. Az. Time Alt. Az.
13 Feb -3.2 05:44:30 20° SSW 05:46:34 55° SE 05:49:50 10° ENE visible
14 Feb -1.9 05:00:02 29° ESE 05:00:02 29° ESE 05:02:34 10° ENE visible
14 Feb -2.7 06:33:24 10° W 06:36:23 30° NNW 06:39:23 10° NE visible
15 Feb -3.4 05:48:22 36° WNW 05:49:13 46° NNW 05:52:27 10° NE visible
16 Feb -2.2 05:03:29 32° NE 05:03:29 32° NE 05:05:25 10° NE visible
16 Feb -1.8 06:37:12 10° WNW 06:39:21 16° NNW 06:41:30 10° NNE visible
17 Feb -2.2 05:51:27 20° NW 05:52:00 21° NNW 05:54:38 10° NNE visible
18 Feb -1.6 05:06:18 19° NNE 05:06:18 19° NNE 05:07:41 10° NNE visible
19 Feb -1.4 05:54:02 12° NNW 05:54:56 13° NNW 05:56:29 10° NNE visible
20 Feb -1.2 05:08:42 13° N 05:08:42 13° N 05:09:36 10° NNE visible
22 Feb -1.0 05:10:51 10° N 05:10:51 10° N 05:11:11 10° N visible
